Location: Bouillancy
(49.1149°N, 2.9308°E)
Time: 22:38:25
(UTC+00:00)

NOSS 3-4 (A) - Pass Details

Date: 30 September 2020
Orbit: 886 x 1326 km, 63.4° (Epoch: 22 October)

Event Time Altitude Azimuth Distance (km) Brightness Sun altitude
Rises 19:06:45 0° 233° (SW) 3,492 7.0 -16.8°
Reaches altitude 10° 19:09:13 10° 237° (WSW) 2,574 6.3 -17.2°
Maximum altitude 19:15:06 62° 318° (NW) 1,051 3.9 -18.1°
Drops below altitude 10° 19:21:31 10° 39° (NE) 2,789 5.7 -19.1°
Sets 19:24:17 0° 43° (NE) 3,807 6.4 -19.6°
